User: anonymous   Login
Location: Newark
(41.1192°N, 81.5292°W)
Time: 08:42:46
(UTC+00:00)
Language:

N. Korean satellite - Orbit

View from above orbital plane
View from above orbital plane
View from above satellite
View from above satellite

Ground track
Ground track

The orbit data is extracted from the following two-line orbital elements,

1 39026U 12072A   19340.91378679 +.00000781 +00000-0 +30544-4 0  9995
2 39026 097.2160 338.6038 0036741 210.2965 149.6152 15.28223312387683
Epoch (UTC): 06 December 2019 21:55:51
Eccentricity: 0.0036741
inclination: 97.2160°
perigee height: 456 km
apogee height: 506 km
right ascension of ascending node: 338.6038°
argument of perigee: 210.2965°
revolutions per day: 15.28223312
mean anomaly at epoch: 149.6152°
orbit number at epoch: 38768

The dashed part of the orbit path shows where the satellite is in the earth's shadow,  

DLR